Notices

What's New in latest Release from April 7th, 2021:

- Updated Glossary, including Speed of Maximum Gust, and Total Hourly Precipitation

- Updated national and regional climate services offices contacts and prices information

- Addition of station inventory lists for 1981-2010, 1971-2000, and 1961-1990 Normals.

If you haven't already, please take our survey and provide feedback about our website: https://eccc.sondage-survey.ca/f/LanguageSelection.aspx?s=442ca660-fcf1-47c0-95a9-59707d6fd709

Hourly Data Report for June 16, 2020

TRENTON A
ONTARIO
Current Station Operator: DND

44°07'00.000" N
77°32'00.000" W
86.30 m
6158875
71621
YTR

Download Data

Hourly Data (June 2020)
Hourly Data Report for June 16, 2020
TIME
LST
Temp Definition
°C
Dew Point Definition
°C
Rel Hum Definition
%
Precip. Amount Definition
mm

Wind Dir Definition
10's deg

Wind Spd Definition
km/h
Visibility Definition
km
Stn Press Definition
kPa
Hmdx Definition


Wind Chill Definition


Weather Definition


00:00 10.2 7.4 83     0 24.1 101.92     Clear
01:00 11.0 7.1 77   1 4 24.1 101.89     Clear
02:00 10.1 7.4 83   5 5 24.1 101.90     Clear
03:00 9.9 7.8 87     0 24.1 101.88     Mainly Clear
04:00 8.2 7.4 95   6 4 24.1 101.90     Mainly Clear
05:00 8.2 6.8 91     0 24.1 101.96     Mainly Clear
06:00 11.0 9.0 87   1 4 24.1 102.00     Mainly Clear
07:00 15.2 9.2 67   7 4 24.1 102.01     Mainly Clear
08:00 18.1 10.5 61   4 4 24.1 102.01     Clear
09:00 21.3 7.2 40   33 4 24.1 102.00     Clear
10:00 22.5 5.8 34   16 5 24.1 101.95     Clear
11:00 23.8 6.4 33   19 5 24.1 101.94     Clear
12:00 22.6 11.8 50   21 15 24.1 101.90 25   Clear
13:00 22.8 9.5 43   24 13 24.1 101.84     Clear
14:00 23.6 10.0 42   22 11 24.1 101.77 25   Clear
15:00 23.7 9.5 41   25 11 24.1 101.73 25   Clear
16:00 23.6 8.5 38   24 8 24.1 101.66     Clear
17:00 23.4 8.7 39   21 8 24.1 101.61     Clear
18:00 23.2 8.7 40   20 8 24.1 101.55     Clear
19:00 22.3 8.1 40   21 9 24.1 101.52     Clear
20:00 20.0 9.3 50   20 5 24.1 101.49     Clear
21:00 16.1 11.5 74     0 24.1 101.51     Clear
22:00 13.2 10.2 82   4 4 24.1 101.50     Clear
23:00 12.3 10.2 87     0 24.1 101.51     Clear

Notes on Data Quality.

Legend

  • E = Estimated
  • M = Missing
  • NA = Not Available*
  • [empty] = Indicates an unobserved value
Date modified: